Tracking 35331 objects as of 16-Sep-2026
HD Live streaming from Space Station
objects crossing your sky now

SL-6 R/B(1)


SL-6 R/B(1) is no longer on orbit


NORAD ID: 14200
Int'l Code: 1983-073B
Launch date: July 19, 1983
Source: Commonwealth of Independent States (former USSR) (CIS)
Launch site: TYURATAM MISSILE AND SPACE COMPLEX (TTMTR)
Decay date: 1983-08-20

Note: This is a ROCKET BODY
Your satellite tracking list
Your tracking list is empty




NASA's NSSDC Master Catalog

Two Line Element Set (TLE):
1 14200U 83073  B 83232.04756932  .30109425 +39561-4 +46946-3 0  9996
2 14200 062.9083 075.6792 0007572 042.2282 317.9512 16.47979895005024
Source of the keplerian elements: AFSPC